Starlink 3369

operational
NORAD ID: 51142 Int'l Des: 2022-005 Owner: SPXS Country: US Constellation: starlink
LEOCIRCULAR

About Starlink 3369

Description loading...

Live Position

Loading 3D Globe...

Upcoming Passes

Altitude History

Altitude vs Time

uPlot chart will show altitude changes over time

Two-Line Element Set

1 51142U 22005AQ 26061.10077978 .00034910 00000-0 16846-2 0 9990
2 51142 53.2120 316.4436 0003931 149.3982 210.7244 15.18382729227824
Epoch: Mar 2, 2026 • Age: 29 hours

Current Status

Altitude 518.9 km
Velocity 7.60 km/s
Sub-Earth Point -20.43°S, 56.87°E
Launch Date Jan 19, 2022
Age 4.1 years
Type internet

Technical Details

Classification Payload
Mass 297.00 kg
Dry Mass 275.00 kg
Total Mass 297.00 kg
Length 0.20 m
Diameter 2.80 m
Span 9.00 m
Shape Box + pan
Manufacturer SPXS
Bus Type Starlink
Phase Status In Orbit
Owner/State SPXS/US

Large Constellations

Loading constellations...